GW2492 Weather Reports


Display with metric or nautical units.
time (UTC)temp
F
wind
direction
speed
MPH
gust
MPH
rain 1hr
in
rain 24hr
in
rain mn
in
humidity
%
barometer
mb
20260901121605 78 164 3.0 10.0 0.00 0.00 0.00 66 1018.1
20260901120049 78 147 6.0 12.0 0.00 0.00 0.00 66 1017.8
20260901114602 79 158 5.0 8.0 0.00 0.00 0.00 65 1018.0
20260901113055 79 140 1.0 7.0 0.00 0.00 0.00 64 1018.0
20260901111556 79 158 6.0 10.0 0.00 0.00 0.00 64 1017.7
20260901110054 79 170 7.0 15.0 0.00 0.00 0.00 64 1017.5
20260901104550 79 168 11.0 16.0 0.00 0.00 0.00 64 1017.3
20260901103045 80 196 12.0 20.0 0.00 0.00 0.00 63 1017.1
20260901101555 80 172 14.0 22.0 0.00 0.00 0.00 62 1017.2
20260901100050 80 176 15.0 22.0 0.00 0.00 0.00 62 1016.9
20260901094547 80 173 12.0 19.0 0.00 0.00 0.00 62 1016.9
20260901093058 80 170 13.0 21.0 0.00 0.00 0.00 64 1016.8
20260901091555 80 172 13.0 18.0 0.00 0.00 0.00 64 1016.9
20260901090047 80 171 12.0 20.0 0.00 0.00 0.00 64 1016.8
20260901084544 81 155 16.0 22.0 0.00 0.00 0.00 62 1016.7
20260901083054 81 143 15.0 21.0 0.00 0.00 0.00 62 1016.8
20260901081550 81 146 12.0 18.0 0.00 0.00 0.00 62 1016.8
20260901080053 81 159 13.0 18.0 0.00 0.00 0.00 61 1016.8
20260901074606 81 146 12.0 19.0 0.00 0.00 0.00 60 1016.6
20260901073056 81 150 14.0 18.0 0.00 0.00 0.00 59 1016.7
20260901071550 81 153 12.0 17.0 0.00 0.00 0.00 58 1016.7
20260901070048 81 150 11.0 14.0 0.00 0.00 0.00 58 1016.7
20260901064552 81 144 9.0 15.0 0.00 0.00 0.00 58 1016.6
20260901063054 82 152 9.0 13.0 0.00 0.00 0.00 57 1016.5
20260901061550 82 136 7.0 11.0 0.00 0.00 0.00 57 1016.4
20260901060053 82 157 8.0 12.0 0.00 0.00 0.00 56 1016.4
20260901054546 83 139 8.0 11.0 0.00 0.00 0.00 55 1016.5
20260901053054 83 111 8.0 13.0 0.00 0.00 0.00 54 1016.6
20260901051600 84 140 9.0 13.0 0.00 0.00 0.00 53 1016.5
20260901050054 84 121 9.0 13.0 0.00 0.00 0.00 52 1016.4
20260901044552 85 136 9.0 13.0 0.00 0.00 0.00 52 1016.4
20260901043059 85 132 9.0 16.0 0.00 0.00 0.00 51 1016.4
20260901041553 86 155 10.0 15.0 0.00 0.00 0.00 50 1016.3
20260901040111 86 137 10.0 15.0 0.00 0.00 0.00 50 1016.3
20260901034549 86 132 8.0 12.0 0.00 0.00 0.00 49 1016.2
20260901033056 86 136 5.0 9.0 0.00 0.00 0.00 48 1016.2
20260901031552 87 130 4.0 11.0 0.00 0.00 0.00 47 1016.0
20260901030053 87 133 7.0 14.0 0.00 0.00 0.00 46 1015.7
20260901024625 88 99 9.0 13.0 0.00 0.00 0.00 45 1015.5
20260901023100 89 111 9.0 12.0 0.00 0.00 0.00 44 1015.3
20260901021554 89 141 8.0 12.0 0.00 0.00 0.00 43 1014.9
20260901020056 90 144 6.0 11.0 0.00 0.00 0.00 42 1014.7
20260901014554 91 106 6.0 10.0 0.00 0.00 0.00 41 1014.5
20260901013109 91 155 9.0 14.0 0.00 0.00 0.00 40 1014.4
20260901011551 92 142 9.0 16.0 0.00 0.00 0.00 40 1014.4
20260901010054 93 141 11.0 16.0 0.00 0.00 0.00 39 1014.3
20260901004554 94 142 12.0 20.0 0.00 0.00 0.00 38 1014.2
20260901003047 94 138 11.0 17.0 0.00 0.00 0.00 37 1014.2
20260901001553 95 108 10.0 18.0 0.00 0.00 0.00 37 1014.0
20260901000051 95 101 13.0 23.0 0.00 0.00 0.00 37 1013.8
20260831234559 96 99 11.0 19.0 0.00 0.00 0.00 37 1013.7
20260831233055 97 109 13.0 21.0 0.00 0.00 0.00 35 1013.7
20260831231549 96 101 6.0 17.0 0.00 0.00 0.00 35 1013.9
20260831230057 97 112 11.0 19.0 0.00 0.00 0.00 34 1014.1
20260831224557 97 109 12.0 19.0 0.00 0.00 0.00 35 1013.9
20260831223054 97 82 9.0 15.0 0.00 0.00 0.00 34 1014.0
20260831221610 97 144 2.0 14.0 0.00 0.00 0.00 34 1014.1
20260831220049 97 142 9.0 25.0 0.00 0.00 0.00 33 1014.4
20260831214554 97 197 6.0 14.0 0.00 0.00 0.00 37 1014.5
20260831213055 96 109 10.0 15.0 0.00 0.00 0.00 35 1014.7
20260831211549 96 113 8.0 16.0 0.00 0.00 0.00 35 1015.0
20260831210049 97 157 4.0 15.0 0.00 0.00 0.00 34 1015.1
20260831204544 97 144 6.0 14.0 0.00 0.00 0.00 34 1015.2
20260831203125 95 142 2.0 12.0 0.00 0.00 0.00 37 1015.4
20260831201602 96 178 6.0 16.0 0.00 0.00 0.00 34 1015.6
20260831200139 96 173 2.0 16.0 0.00 0.00 0.00 36 1015.8
20260831194559 95 251 5.0 12.0 0.00 0.00 0.00 36 1016.1
20260831193054 95 197 9.0 16.0 0.00 0.00 0.00 38 1016.3
20260831191554 94 67 6.0 17.0 0.00 0.00 0.00 39 1016.5
20260831190049 95 109 7.0 19.0 0.00 0.00 0.00 38 1016.8
20260831184558 94 146 3.0 15.0 0.00 0.00 0.00 40 1017.0
20260831183104 93 140 3.0 16.0 0.00 0.00 0.00 40 1017.2
20260831181554 92 170 10.0 16.0 0.00 0.00 0.00 40 1017.5
20260831180110 91 169 8.0 16.0 0.00 0.00 0.00 45 1017.7
20260831174554 91 181 8.0 14.0 0.00 0.00 0.00 46 1017.8
20260831173102 92 117 13.0 19.0 0.00 0.00 0.00 45 1017.9
20260831171556 91 159 12.0 18.0 0.00 0.00 0.00 48 1017.9
20260831170113 91 213 10.0 17.0 0.00 0.00 0.00 50 1018.0
20260831164553 89 189 8.0 15.0 0.00 0.00 0.00 52 1018.1
20260831163050 89 194 8.0 14.0 0.00 0.00 0.00 53 1018.2
20260831161550 88 183 9.0 14.0 0.00 0.00 0.00 54 1018.1
20260831160100 87 173 10.0 14.0 0.00 0.00 0.00 56 1018.0
20260831154615 86 207 7.0 11.0 0.00 0.00 0.00 58 1017.9
20260831153055 85 219 5.0 12.0 0.00 0.00 0.00 58 1017.8
20260831151547 84 202 10.0 18.0 0.00 0.00 0.00 58 1017.8
20260831150047 83 203 12.0 18.0 0.00 0.00 0.00 60 1017.7
20260831144555 83 182 17.0 23.0 0.00 0.00 0.00 60 1017.5
20260831143049 81 198 15.0 27.0 0.00 0.00 0.00 64 1017.6
20260831141553 80 198 17.0 25.0 0.00 0.00 0.00 67 1017.6
20260831140058 80 203 15.0 22.0 0.00 0.00 0.00 69 1017.4
20260831134601 79 181 13.0 22.0 0.00 0.00 0.00 70 1017.4
20260831133057 78 203 13.0 19.0 0.00 0.00 0.00 72 1017.3
20260831131559 77 187 15.0 22.0 0.00 0.00 0.00 74 1017.0
20260831130054 77 193 15.0 22.0 0.00 0.00 0.00 75 1016.7
20260831124544 76 166 10.0 17.0 0.00 0.00 0.00 76 1016.7
20260831123057 76 189 13.0 20.0 0.00 0.00 0.00 76 1016.4